Regional Weather Roundup
Issued by NWS

Home | Current Version | Previous Version | Text Only | Print | Product List | Glossary On
Versions: 1 2 3 4 5 6 7 8 9 10 11 12 13 14 15 16 17 18 19 20 21 22 23 24 25 26 27 28 29 30 31 32 33 34 35 36 37 38 39 40 41 42 43 44 45 46 47 48 49 50
000
ASCA44 KEWX 291720
RWRMX

LATIN AMERICA AND CARIBBEAN REGIONAL WEATHER ROUNDUP
NATIONAL WEATHER SERVICE AUSTIN/SAN ANTONIO TX
1200 PM CDT SUN MAR 29 2015

NOTE: "FAIR" INDICATED FEW OR NO CLOUDS BELOW 12,000 FEET WITH NO
SIGNIFICANT WEATHER AND/OR OBSTRUCTIONS TO VISIBILITY.

BAJA CALIFORNIA

CITY           SKY/WX    TMP DP  RH WIND       PRES   REMARKS
LORETO           N/A    N/A N/A N/A MISG        N/A
LA PAZ         SUNNY     84  43  23 SE3       30.06S
MEXICALI       PTSUNNY   81  32  17 E3        29.99R
S.J. DEL CABO  SUNNY     90  36  14 CALM      30.05S
TIJUANA        PTSUNNY   68  52  56 E5        30.07S

NORTHWESTERN MEXICO

CITY           SKY/WX    TMP DP  RH WIND       PRES   REMARKS
CULIACAN       SUNNY     84  66  54 S6        30.05S
DURANGO        SUNNY     64  37  36 CALM      30.40F
GUAYMAS        MOSUNNY   79  64  61 CALM      29.98R
HERMOSILLO     PTSUNNY   82  43  24 NE7       30.07R
CD. JUAREZ     SUNNY     75  30  19 SW6       30.16R
LOS MOCHIS     SUNNY     79  63  57 E9        30.05S
OBREGON        MOSUNNY   82  55  39 S6        30.02S

NORTHEASTERN MEXICO

CITY           SKY/WX    TMP DP  RH WIND       PRES   REMARKS
CHIHUAHUA      SUNNY     75  28  17 CALM      30.27F
MATAMOROS      PTSUNNY   77  66  69 SE23      30.19R
MONCLOVA       SUNNY     84  52  32 CALM      30.10S
MONTERREY      SUNNY     77  55  47 S5        30.09R
NUEVO LAREDO   SUNNY     73  57  56 S12       30.11R
PIEDRAS NEGRAS SUNNY     72  57  60 E7        30.10S
REYNOSA        SUNNY     75  57  53 SE21G37   30.13S
SALTILLO       SUNNY     79  52  38 CALM      30.31S
TORREON        SUNNY     73  39  29 E3        30.26S
CD. VICTORIA   SUNNY     77  57  50 S12       30.12F

WESTERN MEXICO

CITY           SKY/WX    TMP DP  RH WIND       PRES   REMARKS
AGUASCALIENTES SUNNY     66  41  39 SW7       30.42F
COLIMA         MOSUNNY   82  55  39 CALM      30.17S
DEL BAJIO      MOSUNNY   68  48  49 S5        30.45F
GUADALAJARA    SUNNY     73  48  40 SE8       30.33F
MANZANILLO     SUNNY     82  72  69 SW9       30.03S
MAZATLAN       SUNNY     79  64  61 S5        30.04S
P. VALLARTA    SUNNY     82  64  54 SW5       30.05S
URUAPAN        SUNNY     73  57  56 CALM      30.32F
ZACATECAS      SUNNY     66  32  28 CALM      30.43S

CENTRAL MEXICO

CITY           SKY/WX    TMP DP  RH WIND       PRES   REMARKS
CUERNAVACA     MOSUNNY   73  54  49 CALM      30.31F
MEXICO CITY    MOSUNNY   64  45  48 NE3       30.45S
MORELIA        SUNNY     66  50  55 CALM      30.38F
POZA RICA      MOSUNNY   79  66  65 CALM      30.20F
PUEBLA         PTSUNNY   64  45  48 SE5       30.45S
QUERETARO      MOSUNNY   68  45  42 CALM      30.43F
S. LUIS POTOSI SUNNY     66  43  42 CALM      30.38F
TAMPICO        MOSUNNY   75  63  64 S9        30.18F
TOLUCA         MOSUNNY   66  45  45 NW3       30.52F

SOUTHERN MEXICO

CITY           SKY/WX    TMP DP  RH WIND       PRES   REMARKS
ACAPULCO       SUNNY     84  66  54 SW8       30.02S
B. DE HUATULCO MOSUNNY   88  82  84 CALM      30.05F HX 108
OAXACA         MOSUNNY   73  50  43 N10       30.34F
P. ESCONDIDO   MOSUNNY   82  73  74 S16       30.15S
VERACRUZ       MOSUNNY   77  57  50 E5        30.17F
ZIHUATANEJO    SUNNY     86  68  54 SW6       30.04S

YUCATAN PENINSULA

CITY           SKY/WX    TMP DP  RH WIND       PRES   REMARKS
CAMPECHE       MOSUNNY   82  63  51 E10       30.13F
CANCUN         PTSUNNY   79  64  61 E21       30.23S
CHETUMAL       CLOUDY    81  70  69 NE15      30.13F
CD. DEL CARMEN PTSUNNY   79  68  69 E9        30.15F
COZUMEL        PTSUNNY   75  64  69 NE15G26   30.20F
MERIDA         PTSUNNY   84  61  45 NE14      30.18F
MINATITLAN     CLOUDY    77  68  73 NW7       30.13F
TAPACHULA      MOSUNNY   88  75  66 CALM      30.01F HX  97
TUX. GUTIERREZ MOSUNNY   77  59  53 N9        30.14F
VILLAHERMOSA   PTSUNNY   79  70  73 SW3       30.16F

CENTRAL AMERICA

CITY           SKY/WX    TMP DP  RH WIND       PRES   REMARKS
BELIZE CITY    PTSUNNY   81  75  83 NE10      30.12F
MANAGUA        MOSUNNY   91  64  40 E12       29.97F HX  93

CARIBBEAN

CITY           SKY/WX    TMP DP  RH WIND       PRES   REMARKS
ARUBA          MOSUNNY   88  73  62 E25       29.94F HX  96
CURACAO        MOSUNNY   86  72  62 E17       30.00R HX  92
KINGSTON       MOSUNNY   84  72  65 S13       30.06F
SAN JUAN       MOSUNNY   84  64  51 SE10G16   30.08F
SANTO DOMINGO  MOSUNNY   86  70  58 S9        30.06F HX  90
ST. CROIX      SUNNY     84  68  58 SE12      30.11
ST. KITTS      MOSUNNY   86  70  58 SE13      30.06F HX  90
ST. MAARTEN    MOSUNNY   82  70  65 SE14      30.09S
ST. THOMAS     SUNNY     82  70  65 SE10      30.10

$$



USA.gov is the U.S. government's official web portal to all federal, state and local government web resources and services.